Location: Amsterdam
(30.7274°N, 84.4357°W)
Time: 11:00:46
(UTC+00:00)

LilacSat-2 - Visible Passes

Search period start: 15 March 2026 00:00
Search period end: 25 March 2026 00:00
Orbit: 418 x 426 km, 97.5° (Epoch: 15 March)

Date Brightness Start Highest point End Pass type
(mag) Time Alt. Az. Time Alt. Az. Time Alt. Az.
15 Mar ? 00:18:51 10° SE 00:21:23 21° ENE 00:23:54 10° NNE visible
15 Mar ? 01:52:11 10° WSW 01:53:29 12° W 01:54:48 10° WNW visible
16 Mar ? 01:06:38 10° S 01:09:50 58° W 01:13:02 10° NNW visible
17 Mar ? 00:23:40 10° SE 00:26:22 25° ENE 00:29:05 10° NNE visible
17 Mar ? 01:58:19 10° W 01:58:31 10° W 01:58:44 10° W visible
18 Mar ? 01:11:38 10° S 01:14:46 48° W 01:17:55 10° NNW visible
19 Mar ? 00:28:22 10° SE 00:31:12 28° ENE 00:34:04 10° NNE visible
20 Mar ? 01:16:29 10° S 01:19:33 40° W 01:22:38 10° NNW visible
21 Mar ? 00:32:56 10° SE 00:35:53 33° ENE 00:38:51 10° N visible
22 Mar ? 01:21:12 10° SSW 01:24:10 34° W 01:27:10 10° NNW visible
23 Mar ? 00:37:22 10° SE 00:40:25 39° ENE 00:43:27 10° N visible
24 Mar ? 01:25:47 10° SSW 01:28:38 29° W 01:31:30 10° NW visible
